Weather History for Nogales, AZ

Change the Weather History Date:

Wednesday, June 26, 2013

  Actual Average (KTUS) Record (KTUS)
Temperature  
Mean Temperature 81 °F 87 °F  
Max Temperature 98 °F 102 °F 117 °F (1990)
Min Temperature 64 °F 72 °F 55 °F (1965)
Degree Days  
Heating Degree Days 0 0  
Month to date heating degree days 0  
Since 1 June heating degree days 0  
Since 1 July heating degree days 1511  
Cooling Degree Days 16 22  
Month to date cooling degree days 503  
Year to date cooling degree days 1005  
Since 1 June cooling degree days 503  
Growing Degree Days 31 (Base 50)    
Moisture  
Dew Point 27 °F    
Average Humidity 14    
Maximum Humidity 24    
Minimum Humidity 8    
Precipitation  
Precipitation 0.00 in 0.01 in 0.25 in (1962)
Month to date precipitation 0.14  
Year to date precipitation 3.21  
Sea Level Pressure  
Sea Level Pressure 29.90 in    
Wind  
Wind Speed 5 mph (WNW)    
Max Wind Speed 13 mph    
Max Gust Speed 16 mph    
Visibility 10 miles    
Events      
T = Trace of Precipitation, MM = Missing Value Source: NWS Daily Summary

Daily Weather History Graph

Daily Weather History Graph

Search for Another Location

Airport:

Trip Planner

Search our weather history database for the weather conditions in past years. The results will help you decide how hot, cold, wet, or windy it might be!

Date:

Astronomy

Jun. 26, 2013 Rise Set
Actual Time 5:20 AM MST 7:31 PM MST
Civil Twilight 4:52 AM MST 7:59 PM MST
Nautical Twilight 4:18 AM MST 8:34 PM MST
Astronomical Twilight 3:41 AM MST 9:10 PM MST
Moon 10:14 PM MST (6/26) 9:01 AM MST (6/26)
Length of Visible Light 15h 07m
Length of Day
14h 11m
Waning Gibbous, 84% of the Moon is Illuminated
Jun 26
Waning Gibbous
Jun 29
Last Quarter
Jul 8
New
Jul 15
First Quarter
Jul 22
Full

Hourly Weather History & Observations

Time (MST) Temp. Dew Point Humidity Pressure Visibility Wind Dir Wind Speed Gust Speed Precip Events Conditions
12:54 AM 73.9 °F 32.0 °F 21% 29.87 in 10.0 mi South 4.6 mph - N/A   Clear
1:54 AM 69.1 °F 30.9 °F 24% 29.89 in 10.0 mi ESE 3.5 mph - N/A   Clear
2:54 AM 68.0 °F 28.0 °F 22% 29.90 in 10.0 mi Calm Calm - N/A   Clear
3:54 AM 66.9 °F 23.0 °F 19% 29.91 in 10.0 mi ENE 4.6 mph - N/A   Clear
4:54 AM 66.0 °F 25.0 °F 21% 29.92 in 10.0 mi Calm Calm - N/A   Clear
5:54 AM 64.0 °F 26.1 °F 24% 29.94 in 10.0 mi ENE 6.9 mph - N/A   Clear
6:54 AM 70.0 °F 27.0 °F 20% 29.95 in 10.0 mi South 4.6 mph - N/A   Clear
7:54 AM 79.0 °F 28.0 °F 15% 29.95 in 10.0 mi South 5.8 mph - N/A   Clear
8:54 AM 82.9 °F 28.9 °F 14% 29.96 in 10.0 mi SW 5.8 mph - N/A   Clear
9:54 AM 87.1 °F 28.0 °F 12% 29.96 in 10.0 mi Variable 4.6 mph - N/A   Clear
10:54 AM 89.1 °F 27.0 °F 11% 29.96 in 10.0 mi South 4.6 mph - N/A   Clear
11:54 AM 93.9 °F 28.9 °F 10% 29.94 in 10.0 mi NE 8.1 mph - N/A   Clear
12:54 PM 95.0 °F 28.9 °F 10% 29.91 in 10.0 mi WSW 6.9 mph - N/A   Clear
1:54 PM 97.0 °F 30.0 °F 9% 29.90 in 10.0 mi West 8.1 mph - N/A   Clear
2:54 PM 97.0 °F 30.0 °F 9% 29.88 in 10.0 mi Variable 5.8 mph - N/A   Clear
3:54 PM 97.0 °F 28.9 °F 9% 29.86 in 10.0 mi WNW 6.9 mph - N/A   Clear
4:54 PM 98.1 °F 28.9 °F 9% 29.84 in 10.0 mi West 9.2 mph 16.1 mph N/A   Clear
5:54 PM 96.1 °F 26.1 °F 8% 29.84 in 10.0 mi WNW 12.7 mph - N/A   Clear
6:54 PM 93.9 °F 23.0 °F 8% 29.83 in 10.0 mi NNW 11.5 mph 16.1 mph N/A   Clear
7:54 PM 90.0 °F 21.9 °F 8% 29.84 in 10.0 mi NNW 4.6 mph - N/A   Clear
8:54 PM 84.0 °F 21.9 °F 10% 29.86 in 10.0 mi North 5.8 mph - N/A   Clear
9:54 PM 81.0 °F 21.0 °F 11% 29.88 in 10.0 mi NE 4.6 mph - N/A   Clear
10:54 PM 79.0 °F 21.0 °F 12% 29.90 in 10.0 mi North 4.6 mph - N/A   Clear
11:54 PM 73.9 °F 28.0 °F 18% 29.91 in 10.0 mi Calm Calm - N/A   Clear